Year,Month,Day,Hour,Minute,Value (Times are PST for temperature in C)
2013,02,14,08,30,5.10
2013,02,14,08,31,5.10
2013,02,14,08,32,5.00
2013,02,14,08,33,5.00
2013,02,14,08,34,5.00
2013,02,14,08,35,5.00
2013,02,14,08,36,5.00
2013,02,14,08,37,5.00
2013,02,14,08,38,5.00
2013,02,14,08,39,5.00
2013,02,14,08,40,5.00
2013,02,14,08,41,5.00
2013,02,14,08,42,5.00
2013,02,14,09,32,5.30
2013,02,14,09,33,5.30
2013,02,14,09,34,5.20
2013,02,14,09,35,5.20
2013,02,14,09,36,5.20
2013,02,14,09,37,5.20
2013,02,14,09,38,5.20
2013,02,14,09,39,5.30
2013,02,14,09,40,5.30
2013,02,14,09,41,5.30
2013,02,14,09,42,5.30
2013,02,14,09,43,5.30
2013,02,14,09,44,5.30
2013,02,14,09,45,5.30
2013,02,14,09,46,5.30
2013,02,14,09,47,5.30
2013,02,14,09,48,5.30
2013,02,14,09,49,5.30
2013,02,14,09,50,5.30
2013,02,14,10,57,5.80
2013,02,14,10,58,5.80
2013,02,14,10,59,5.80
2013,02,14,11,00,5.80
2013,02,14,11,01,5.80
2013,02,14,11,02,5.80
2013,02,14,11,03,5.80
2013,02,14,11,04,5.80
2013,02,14,11,05,5.80
2013,02,14,11,06,5.90
2013,02,14,11,07,5.90
2013,02,14,11,08,5.90
2013,02,14,11,09,5.90
2013,02,14,11,10,5.90
2013,02,14,11,11,5.90
2013,02,14,11,12,5.90
2013,02,14,11,13,5.90
2013,02,14,11,14,5.90
2013,02,14,11,15,5.90
2013,02,14,11,16,5.90
2013,02,14,11,17,5.90
2013,02,14,11,18,5.90
2013,02,14,11,19,5.90
2013,02,14,11,20,5.90
2013,02,14,11,21,5.90
2013,02,14,11,22,5.90
2013,02,14,11,23,5.90
2013,02,14,11,24,5.90
2013,02,14,11,25,5.90
2013,02,14,11,26,5.90
2013,02,14,11,27,5.90
2013,02,14,11,28,5.90
2013,02,14,11,29,6.00
2013,02,14,11,30,6.00
2013,02,14,11,31,6.00
2013,02,14,11,32,6.00
2013,02,14,11,33,6.00
2013,02,14,11,34,6.00
2013,02,14,11,35,6.00
2013,02,14,11,36,6.00
2013,02,14,11,37,6.00
2013,02,14,11,38,6.00
2013,02,14,11,39,6.00
2013,02,14,11,40,6.00
2013,02,14,11,41,6.00
2013,02,14,11,42,6.00
2013,02,14,11,43,6.00
2013,02,14,11,44,6.10
2013,02,14,11,45,6.10
2013,02,14,11,46,6.10
2013,02,14,11,47,6.10
2013,02,14,11,48,6.10
2013,02,14,11,49,6.10
2013,02,14,11,50,6.10
2013,02,14,11,51,6.10
2013,02,14,11,52,6.10
2013,02,14,11,53,6.10
2013,02,14,11,54,6.10
2013,02,14,11,55,6.10
2013,02,14,11,56,6.10
2013,02,14,11,57,6.10
2013,02,14,11,58,6.10
2013,02,14,11,59,6.10
2013,02,14,12,00,6.10
2013,02,14,12,01,6.10
2013,02,14,12,02,6.10
2013,02,14,12,03,6.10
2013,02,14,12,04,6.10
2013,02,14,12,05,6.10
2013,02,14,12,06,6.10
2013,02,14,12,07,6.10
2013,02,14,12,08,6.00
2013,02,14,12,09,6.00
2013,02,14,12,10,5.90
2013,02,14,12,11,5.90
2013,02,14,12,12,5.90
2013,02,14,12,13,5.90
2013,02,14,12,14,5.90
2013,02,14,12,15,5.90
2013,02,14,12,16,5.90
2013,02,14,12,17,5.90
2013,02,14,12,18,5.90
2013,02,14,12,19,5.90
2013,02,14,12,20,5.90
2013,02,14,12,21,5.90
2013,02,14,12,22,5.90
2013,02,14,12,23,5.90
2013,02,14,12,24,5.90
2013,02,14,12,25,5.90
2013,02,14,12,26,5.90
2013,02,14,12,27,5.80
2013,02,14,12,28,5.80
2013,02,14,12,29,5.80
2013,02,14,12,30,5.80
2013,02,14,12,31,5.80
2013,02,14,12,32,5.80
2013,02,14,12,33,5.80
2013,02,14,12,34,5.80
2013,02,14,12,35,5.90
2013,02,14,12,36,5.90
2013,02,14,12,37,5.90
2013,02,14,12,38,5.80
2013,02,14,12,39,5.80
2013,02,14,12,40,5.80
2013,02,14,12,41,5.80
2013,02,14,12,42,5.80
2013,02,14,12,43,5.80
2013,02,14,12,44,5.90
2013,02,14,12,45,5.80
2013,02,14,12,46,5.80
2013,02,14,12,47,5.80
2013,02,14,12,48,5.80
2013,02,14,12,49,5.80
2013,02,14,12,50,5.80
2013,02,14,12,51,5.80
2013,02,14,12,52,5.80
2013,02,14,12,53,5.80
2013,02,14,12,54,5.80
2013,02,14,12,55,5.80
2013,02,14,12,56,5.80
2013,02,14,12,57,5.80
2013,02,14,12,58,5.80
2013,02,14,12,59,5.80
2013,02,14,13,00,5.80
2013,02,14,13,01,5.80
2013,02,14,13,02,5.80
2013,02,14,13,03,5.80
2013,02,14,13,04,5.70
2013,02,14,13,05,5.70
2013,02,14,13,06,5.70
2013,02,14,13,07,5.70
2013,02,14,13,08,5.70
2013,02,14,13,09,5.70
2013,02,14,13,10,5.70
2013,02,14,13,11,5.70
2013,02,14,13,12,5.70
2013,02,14,13,13,5.70
2013,02,14,13,14,5.70
2013,02,14,13,15,5.70
2013,02,14,13,16,5.70
2013,02,14,13,17,5.70
2013,02,14,13,18,5.70
2013,02,14,13,19,5.70
2013,02,14,13,20,5.70
2013,02,14,13,21,5.70
2013,02,14,13,22,5.70
2013,02,14,13,23,5.70
2013,02,14,13,24,5.70
2013,02,14,13,25,5.70
2013,02,14,13,26,5.70
2013,02,14,13,27,5.70
2013,02,14,13,28,5.70
2013,02,14,13,29,5.70
2013,02,14,13,30,5.70
2013,02,14,13,31,5.70
2013,02,14,13,32,5.80
2013,02,14,13,33,5.80
2013,02,14,13,34,5.80
2013,02,14,13,35,5.80
2013,02,14,13,36,5.80
2013,02,14,13,37,5.70
2013,02,14,13,38,5.80
2013,02,14,13,39,5.80
2013,02,14,13,40,5.80
2013,02,14,13,41,5.80
2013,02,14,13,42,5.80
2013,02,14,13,43,5.80
2013,02,14,13,44,5.80
2013,02,14,13,45,5.80
2013,02,14,13,46,5.80
2013,02,14,13,47,5.80
2013,02,14,13,48,5.80
2013,02,14,13,49,5.80
2013,02,14,13,50,5.80
2013,02,14,13,51,5.80
2013,02,14,13,52,5.80
2013,02,14,13,53,5.80
2013,02,14,13,54,5.80
2013,02,14,13,55,5.80
2013,02,14,13,56,5.80
2013,02,14,13,57,5.80
2013,02,14,13,58,5.80
2013,02,14,13,59,5.80
2013,02,14,14,00,5.80
2013,02,14,14,01,5.80
2013,02,14,14,02,5.80
2013,02,14,14,03,5.80
2013,02,14,14,04,5.80
2013,02,14,14,05,5.80
2013,02,14,14,06,5.80
2013,02,14,14,07,5.80
2013,02,14,14,08,5.80
2013,02,14,14,09,5.80
2013,02,14,14,10,5.80
2013,02,14,14,11,5.80
2013,02,14,14,12,5.80
2013,02,14,14,13,5.80
2013,02,14,14,14,5.80
2013,02,14,14,15,5.80
2013,02,14,14,16,5.80
2013,02,14,14,17,5.80
2013,02,14,14,18,5.80
2013,02,14,14,19,5.80
2013,02,14,14,20,5.80
2013,02,14,14,21,5.80
2013,02,14,14,22,5.80
2013,02,14,14,23,5.80
2013,02,14,14,24,5.80
2013,02,14,14,25,5.80
2013,02,14,14,26,5.80
2013,02,14,14,27,5.80
2013,02,14,14,28,5.80
2013,02,14,14,29,5.80
2013,02,14,14,30,5.80
2013,02,14,14,31,5.80
2013,02,14,14,32,5.80
2013,02,14,14,33,5.80
2013,02,14,14,34,5.80
2013,02,14,14,35,5.80
2013,02,14,14,36,5.80
2013,02,14,14,37,5.80
2013,02,14,14,38,5.80
2013,02,14,14,39,5.80
2013,02,14,14,40,5.80
2013,02,14,14,41,5.80
2013,02,14,14,42,5.90
2013,02,14,14,43,5.90
2013,02,14,14,44,5.90
2013,02,14,14,45,5.80
2013,02,14,14,46,5.80
2013,02,14,14,47,5.80
2013,02,14,14,48,5.80
2013,02,14,14,49,5.80
2013,02,14,14,50,5.80
2013,02,14,14,51,5.80
2013,02,14,14,52,5.80
2013,02,14,14,53,5.80
2013,02,14,14,54,5.80
